This is the latest recevied weather packets stored in our database for station/object K9YK-13. If no packets are shown the sender has not sent any weather packets the latest 10 day(s).
| Time | Temp. | Humidity | Pressure | Rain* | Wind** | Luminosity | Snow |
|---|---|---|---|---|---|---|---|
| 1777475773 | 15.56° C | 69% | 0 hPa | 0 mm | - | - | - |
| 1777475473 | 16.67° C | 69% | 0 hPa | 0 mm | - | - | - |
| 1777475173 | 16.11° C | 69% | 0 hPa | 0 mm | - | - | - |
| 1777474873 | 16.67° C | 73% | 0 hPa | 0 mm | - | - | - |
| 1777474573 | 16.67° C | 71% | 0 hPa | 0 mm | - | - | - |
| 1777474273 | 15° C | 71% | 0 hPa | 0 mm | - | - | - |
| 1777473973 | 15° C | 72% | 0 hPa | 0 mm | - | - | - |
| 1777473673 | 15° C | 74% | 0 hPa | 0 mm | - | - | - |
| 1777473373 | 15.56° C | 74% | 0 hPa | 0 mm | - | - | - |
| 1777473073 | 16.11° C | 74% | 0 hPa | 0 mm | - | - | - |
| 1777472773 | 16.11° C | 76% | 0 hPa | 0 mm | - | - | - |
| 1777472473 | 14.44° C | 74% | 0 hPa | 0 mm | - | - | - |
| 1777472173 | 15° C | 75% | 0 hPa | 0 mm | - | - | - |
| 1777471873 | 15° C | 77% | 0 hPa | 0 mm | - | - | - |
| 1777471573 | 14.44° C | 77% | 0 hPa | 0 mm | - | - | - |
| 1777471273 | 15° C | 79% | 0 hPa | 0 mm | - | - | - |
| 1777470973 | 14.44° C | 80% | 0 hPa | 0 mm | - | - | - |
| 1777470673 | 14.44° C | 81% | 0 hPa | 0 mm | - | - | - |
| 1777470373 | 14.44° C | 80% | 0 hPa | 0 mm | - | - | - |
| 1777470073 | 13.33° C | 81% | 0 hPa | 0 mm | - | - | - |
| 1777469773 | 13.33° C | 82% | 0 hPa | 0 mm | - | - | - |
| 1777469473 | 13.33° C | 82% | 0 hPa | 0 mm | - | - | - |
| 1777469173 | 13.89° C | 82% | 0 hPa | 0 mm | - | - | - |
| 1777468873 | 13.33° C | 85% | 0 hPa | 0 mm | - | - | - |
| 1777468573 | 13.33° C | 86% | 0 hPa | 0 mm | - | - | - |
* Rain latest hour (hover to see other rain measurements)
** Current wind speed in m/s (hover to see current wind gust speed)